Regional Weather Roundup
Issued by NWS

Home | Current Version | Previous Version | Graphics & Text | Print | Product List | Glossary On
Versions: 1 2 3 4 5 6 7 8 9 10 11 12 13 14 15 16 17 18 19 20 21 22 23 24 25 26 27 28 29 30 31 32 33 34 35 36 37 38 39 40 41 42 43 44 45 46 47 48 49 50
000
ASUS43 KDMX 241706
RWRIA

WEATHER ROUNDUP FOR IOWA
NATIONAL WEATHER SERVICE DES MOINES IA
1200 PM CDT FRI MAR 24 2017

NOTE: "FAIR" INDICATES FEW OR NO CLOUDS BELOW 12,000 FEET WITH NO
SIGNIFICANT WEATHER AND/OR OBSTRUCTIONS TO VISIBILITY.

* - THESE STATIONS ARE NOT NWS STATIONS...THUS NOT UNDER NWS
QUALITY CONTROL.  THEY ALSO DO NOT REPORT WEATHER SUCH
AS PRECIPITATION OR FOG.

IAZ001>003-012>014-020>022-031>034-043>046-241800-
   NORTHWEST IOWA

CITY           SKY/WX    TMP DP  RH WIND       PRES   REMARKS
CARROLL *      MIX PCPN  45  45 100 N15       29.93R
CHEROKEE *     CLOUDY    40  40  97 N12       29.98R WCI  34
LE MARS *      CLOUDY    39  37  93 N12G18    30.01R WCI  32
ORANGE CITY *  DRIZZLE   37  37 100 N12       30.00R WCI  30
SHELDON *      CLOUDY    37  37 100 NE17      29.99R FOG     WCI  28
SIOUX CITY     CLOUDY    42  39  89 N14       29.98R
SPENCER        CLOUDY    39  38  96 N17       29.98R FOG     WCI  30
STORM LAKE *   PTSUNNY   41  39  93 NE16      29.95R FOG
$$

IAZ055>058-069>071-079>083-090>094-241800-
   SOUTHWEST IOWA

CITY           SKY/WX    TMP DP  RH WIND       PRES   REMARKS
ATLANTIC *     LGT RAIN  46  45  93 NE13      29.92R
AUDUBON *      LGT RAIN  45  41  87 NE10      29.94R
CLARINDA *     CLOUDY    57  57 100 S8        29.89F
COUNCIL BLFS * CLOUDY    46  46 100 N14G20    29.90S
CRESTON *      RAIN      55  55 100 SW9       29.91R
HARLAN  *      CLOUDY    45  45 100 NE12      29.96R
LAMONI         LGT RAIN  57  53  86 SW10      29.91R
RED OAK *      LGT RAIN  52  50  93 N14       29.88F
SHENANDOAH *   CLOUDY    59  57  94 N5        29.88R
$$

IAZ047>049-059>061-072>074-084-241800-
   CENTRAL IOWA

CITY           SKY/WX    TMP DP  RH WIND       PRES   REMARKS
AMES           LGT RAIN  46  45  96 N12       29.89S
ANKENY *         N/A     48  45  87 N13       29.90R
BOONE *        PTSUNNY   46  46 100 N14       29.89F
CHARITON *     CLOUDY    66  48  52 SW16G24   29.88R
DES MOINES     LGT RAIN  51  47  86 NW8       29.90R FOG
GRINNELL*      CLOUDY    67  48  49 SW13      29.87R
MARSHALLTOWN   LGT RAIN  50  44  80 N13       29.88R
NEWTON *       CLOUDY    66  48  52 W13       29.86R
PELLA *          N/A     70  46  40 SW17G23   29.88R
PERRY *        DRIZZLE   46  44  90 N14       29.91S
$$

IAZ004>006-015-016-023>025-035-036-241800-
   NORTH CENTRAL IOWA

CITY           SKY/WX    TMP DP  RH WIND       PRES   REMARKS
ALGONA *       PTSUNNY   41  41 100 N15G21    29.96R FOG
CLARION *      CLOUDY    45  45 100 N13       29.94R FOG
ESTHERVILLE    CLOUDY    37  37 100 N17       29.98R FOG     WCI  27
FORT DODGE *   CLOUDY    43  37  81 N8        29.95S
MASON CITY     CLOUDY    41  39  93 N14       29.95R
FOREST CITY *  CLOUDY    41  41 100 N10       29.96R
WEBSTER CITY * CLOUDY    45  43  93 N13       29.90S FOG
IOWA FALLS *   CLOUDY    47  43  87 N10       29.92S
$$

IAZ007>011-017>019-026>030-037>042-050>054-066-241800-
   NORTHEAST IOWA

CITY           SKY/WX    TMP DP  RH WIND       PRES   REMARKS
CEDAR RAPIDS   CLOUDY    71  49  45 SW18G25   29.84S
CHARLES CITY * CLOUDY    45  45 100 N9        29.93R FOG
CLINTON *      SUNNY     76  48  37 SW26      29.86F
DECORAH *      LGT RAIN  45  43  93 NE5       29.88R
DUBUQUE        CLOUDY    70  50  49 SW20      29.85S
MONTICELLO *   PTSUNNY   70  50  49 SW12      29.85S
OELWEIN *      MOSUNNY   55  48  76 VRB5      29.89R
WATERLOO       CLOUDY    49  44  83 NW14      29.90R
$$

IAZ064-065-067-068-078-241800-
   EAST CENTRAL IOWA

CITY           SKY/WX    TMP DP  RH WIND       PRES   REMARKS
DAVENPORT      SUNNY     78  44  29 SW22G33   29.87F
IOWA CITY      CLOUDY    73  46  38 SW17G24   29.87R
MUSCATINE *    SUNNY     75  43  31 SW22G32   29.87S
QUAD CITIES    SUNNY     79  44  28 SW23G32   29.87R
$$

IAZ062-063-075>077-085>089-095>099-241800-
   SOUTHEAST IOWA

CITY           SKY/WX    TMP DP  RH WIND       PRES   REMARKS
BURLINGTON     SUNNY     74  46  36 SW18G30   29.89R
FAIRFIELD *    CLOUDY    73  39  29 SW25G38   29.87R
FORT MADISON * PTSUNNY   75  46  35 S16G23    29.90S
KEOKUK *       CLOUDY    73  46  38 SW18G29   29.90R
OSKALOOSA *    CLOUDY    71  44  37 SW24G30   29.87R
CENTERVILLE *    N/A     68  43  40 SW18      29.90R
OTTUMWA        CLOUDY    74  43  32 SW17G26   29.86R
WASHINGTON *   CLOUDY    73  45  35 SW21G29   29.87S
$$

ABBREVIATIONS USED IN REMARKS
   TC - TEMPERATURES IN CELSIUS
  WCI - WIND CHILL INDEX
   HX - HEAT INDEX
  VSB - VISIBILITY
$$





USA.gov is the U.S. government's official web portal to all federal, state and local government web resources and services.